Preview of NWS' New Version of Forecast
This preview is not operational and should not be used for support decisions.

Regional Weather Roundup (RWR)

Issued by National Weather Service (NWS)

                            
000
ASUS43 KTOP 251859
RWRKS 

WEATHER ROUNDUP FOR KANSAS
NATIONAL WEATHER SERVICE GOODLAND KS
200 PM CDT TUE JUN 25 2019

NOTE:  "FAIR" INDICATES FEW OR NO CLOUDS BELOW 12,000 FEET WITH NO
SIGNIFICANT WEATHER AND/OR OBSTRUCTIONS TO VISIBILITY.

KSZ001>006-013>018-027>032-041>047-252000-
NORTHWEST KANSAS
  
CITY           SKY/WX    TMP DP  RH WIND       PRES   REMARKS
GOODLAND       SUNNY     86  50  28 E6        29.98S                  
HAYS           SUNNY     90  59  35 SW21G28   29.91S                  
HILL CITY      SUNNY     89  67  47 SW17G26   29.92F                  
RUSSELL        SUNNY     93  54  26 S17G30    29.89F                  
$$

KSZ061>065-074>080-084>089-252000-
SOUTHWEST KANSAS
  
CITY           SKY/WX    TMP DP  RH WIND       PRES   REMARKS
DODGE CITY     MOSUNNY   90  52  27 S20       29.95F HAZE             
GARDEN CITY    SUNNY     85  58  39 S18G25    29.96S                  
GREAT BEND     MOSUNNY   90  64  42 S23       29.92F                  
LIBERAL        SUNNY     86  65  49 S14       29.97F                  
$$

KSZ066>073-081>083-090>101-252000-
SOUTHEAST KANSAS
  
CITY           SKY/WX    TMP DP  RH WIND       PRES   REMARKS
CHANUTE        SUNNY     88  68  51 SW12      30.00S                  
COFFEYVILLE    SUNNY     85  71  63 S9        29.98F                  
HUTCHINSON     SUNNY     89  66  46 S16G25    29.91F                  
MEDICINE LODGE   N/A     85  70  60 S8        29.94F                  
NEWTON         SUNNY     89  63  41 S18       29.96F                  
PARSONS        SUNNY     85  72  65 SW6       30.01F                  
WICHITA INTL   MOSUNNY   89  66  46 S10       29.95F                  
WICHITA JABRA  SUNNY     88  66  48 S12       29.95F                  
WICHITA MCCONL PTSUNNY   87  66  48 SE10      29.96F                  
WINFIELD       SUNNY     85  67  54 S9        29.99F                  
$$

KSZ007>012-019>026-033>040-048>060-102>105-252000-
NORTHEAST KANSAS
  
CITY           SKY/WX    TMP DP  RH WIND       PRES   REMARKS
CONCORDIA      SUNNY     89  67  47 SW8       29.91F                  
EMPORIA        SUNNY     87  65  47 SW14G23   29.97F                  
LAWRENCE       SUNNY     86  68  54 SW10      29.96F                  
MANHATTAN      SUNNY     89  66  46 S13G23    29.91F                  
OLATHE IND     SUNNY     86  66  51 S15G24    29.99F                  
OLATHE EXE     SUNNY     84  67  56 SW12      29.99S                  
SALINA         SUNNY     87  68  52 S9        29.91R                  
TOPEKA BILLARD SUNNY     87  64  46 S10G21    29.95F                  
TOPEKA FORBES  SUNNY     88  66  48 S14       29.96F                  
$$